Location: Northcutt
(34.7304°N, 84.4305°W)
Time: 18:32:06
(UTC+00:00)

Transit 2A Rocket - Pass Details

Date: 10 October 2022
Orbit: 589 x 911 km, 66.7° (Epoch: 02 December)

Event Time Altitude Azimuth Distance (km) Brightness Sun altitude
Rises 19:13:01 0° 325° (NW) 3,103 8.0 41.2°
Reaches altitude 10° 19:15:21 10° 319° (NW) 2,230 7.4 40.9°
Maximum altitude 19:20:12 45° 248° (WSW) 1,052 7.4 40.3°
Drops below altitude 10° 19:25:29 10° 177° (S) 2,423 8.3 39.6°
Sets 19:28:07 0° 171° (S) 3,399 8.8 39.2°
